This demonstration page uses our WeatherBlox Daily Observations layout. Learn more.

Left ArrowRight Arrow

39.51506, -84.39828

Hourly Observations for July 21, 2015

Temp ( °F °C ) Dew Point ( °F °C ) Humidity (%) Winds ( mph kmh ) Pressure ( in mb ) Visibility ( mi km ) Precip ( " mm )
12:15 am 00:15 Cloudy with Light Rain 74 23.6 70 21.3 87 87 N N/A 29.83 1010 10 16 N/A
12:35 am 00:35 Cloudy with Light Rain 74 23.6 70 21.2 86 86 S 5 7 29.80 1009 10 16 N/A
12:55 am 00:55 Mostly Cloudy 74 23.6 71 21.5 88 88 S 3 6 29.80 1009 10 16 N/A
1:15 am 01:15 Partly Cloudy 74 23.6 71 21.5 88 88 N N/A 29.80 1009 10 16 N/A
1:35 am 01:35 Partly Cloudy 74 23.6 71 21.5 88 88 SSW 3 6 29.80 1009 10 16 N/A
1:55 am 01:55 Partly Cloudy 74 23.6 71 21.6 89 89 N N/A 29.77 1008 10 16 N/A
2:15 am 02:15 Clear 74 23.6 71 21.6 89 89 N N/A 29.77 1008 10 16 N/A
2:35 am 02:35 Partly Cloudy 74 23.6 71 21.5 88 88 N N/A 29.77 1008 10 16 N/A
2:55 am 02:55 Partly Cloudy 74 23.6 71 21.6 89 89 N N/A 29.77 1008 10 16 N/A
3:15 am 03:15 Mostly Cloudy 74 23.1 70 21.3 90 90 N N/A 29.77 1008 10 16 N/A
3:35 am 03:35 Cloudy 74 23.6 71 21.6 89 89 N N/A 29.77 1008 10 16 N/A
3:55 am 03:55 Cloudy 74 23.6 71 21.6 89 89 N N/A 29.77 1008 10 16 N/A
4:15 am 04:15 Cloudy 74 23.6 70 21.3 87 87 N N/A 29.77 1008 10 16 N/A
4:35 am 04:35 Mostly Cloudy 74 23.6 70 21.2 86 86 NNE 3 6 29.77 1008 10 16 N/A
4:55 am 04:55 Mostly Cloudy 72 22.3 69 20.5 90 90 N N/A 29.74 1007 10 16 N/A
5:15 am 05:15 Cloudy 74 23.1 71 21.4 90 90 N N/A 29.74 1007 10 16 N/A
5:35 am 05:35 Cloudy 74 23.2 70 21.3 89 89 N N/A 29.74 1007 10 16 N/A
5:55 am 05:55 Cloudy 74 23.6 71 21.7 89 89 N N/A 29.77 1008 10 16 N/A
6:10 am 06:10 Cloudy 74 23.1 70 21.3 90 90 N N/A 29.77 1008 10 16 N/A
6:35 am 06:35 Mostly Cloudy 72 22.3 69 20.5 90 90 N N/A 29.77 1008 10 16 N/A
6:55 am 06:55 Mostly Cloudy 74 23.5 71 21.9 91 91 N N/A 29.77 1008 10 16 N/A
7:15 am 07:15 Cloudy 74 23.6 71 21.9 90 90 N N/A 29.77 1008 10 16 N/A
7:35 am 07:35 Cloudy 74 23.6 71 21.9 90 90 N N/A 29.77 1008 10 16 N/A
7:55 am 07:55 Cloudy 74 23.6 71 21.6 89 89 N N/A 29.80 1009 10 16 N/A
8:15 am 08:15 Cloudy 74 23.6 71 21.5 88 88 N N/A 29.80 1009 7 11 N/A
8:35 am 08:35 Mostly Cloudy 74 23.6 70 21.2 86 86 N N/A 29.80 1009 10 16 N/A
8:55 am 08:55 Partly Cloudy 77 25.1 71 21.9 82 82 NNW 3 6 29.80 1009 10 16 N/A
9:15 am 09:15 Partly Cloudy 77 25.1 71 21.6 81 81 NNW 5 7 29.80 1009 10 16 N/A
9:35 am 09:35 Partly Cloudy 77 25.1 71 21.4 80 80 N N/A 29.80 1009 10 16 N/A
9:55 am 09:55 Partly Cloudy 78 25.6 71 21.7 79 79 NNW 7 11 29.83 1010 10 16 N/A
10:15 am 10:15 Partly Cloudy 80 26.5 72 22.1 77 77 N 5 7 29.77 1008 10 16 N/A
10:35 am 10:35 Mostly Cloudy 80 26.5 71 21.5 74 74 NNW 6 9 29.80 1009 10 16 N/A
10:55 am 10:55 Mostly Cloudy 80 26.9 72 22.1 75 75 NNW 5 7 29.80 1009 10 16 N/A
11:15 am 11:15 Mostly Cloudy 81 27.3 71 21.6 71 71 N 10 17 29.80 1009 10 16 N/A
11:35 am 11:35 Partly Cloudy 82 27.9 71 21.5 68 68 NNW 7 11 29.80 1009 10 16 N/A
11:55 am 11:55 Partly Cloudy 82 28 71 21.4 67 67 NW 8 13 29.80 1009 10 16 N/A
12:15 pm 12:15 Partly Cloudy 82 28 69 20.8 65 65 NW 6 9 29.80 1009 10 16 N/A
12:35 pm 12:35 Partly Cloudy 82 28 69 20.6 64 64 NW 7 11 29.80 1009 10 16 N/A
12:55 pm 12:55 Mostly Cloudy 83 28.1 67 19.7 60 60 NNW 8 13 29.80 1009 10 16 N/A
1:15 pm 13:15 Mostly Cloudy 83 28.1 68 19.8 61 61 NW 9 15 29.80 1009 10 16 N/A
1:35 pm 13:35 Mostly Cloudy 83 28.2 66 19 57 57 NW 8 13 29.80 1009 10 16 N/A
1:55 pm 13:55 Partly Cloudy 83 28.6 67 19.3 57 57 W 6 9 29.80 1009 10 16 N/A
2:15 pm 14:15 Mostly Cloudy 82 27.8 67 19.5 61 61 WNW 8 13 29.80 1009 10 16 N/A
2:35 pm 14:35 Mostly Cloudy 85 29.2 68 20.2 58 58 WNW 8 13 29.80 1009 10 16 N/A
2:55 pm 14:55 Mostly Cloudy 81 27.3 67 19.6 63 63 NNW 8 13 29.80 1009 10 16 N/A
3:15 pm 15:15 Partly Cloudy 82 28 65 18.4 56 56 NNW 10 17 29.80 1009 10 16 N/A
3:35 pm 15:35 Partly Cloudy 82 28 64 17.5 53 53 NNW 8 13 29.80 1009 10 16 N/A
3:55 pm 15:55 Sunny 84 28.9 63 17.3 50 50 NNW 9 15 29.80 1009 10 16 N/A
4:15 pm 16:15 Sunny 83 28.5 62 16.5 48 48 NNW 10 17 29.80 1009 10 16 N/A
4:35 pm 16:35 Sunny 83 28.6 61 16.1 47 47 N 15 24 29.80 1009 10 16 N/A
4:55 pm 16:55 Sunny 83 28.6 61 16 46 46 NNW 9 15 29.80 1009 10 16 N/A
5:15 pm 17:15 Sunny 83 28.6 62 16.6 48 48 NNW 10 17 29.80 1009 10 16 N/A
5:35 pm 17:35 Sunny 83 28.5 61 15.9 46 46 NW 6 9 29.80 1009 10 16 N/A
5:55 pm 17:55 Sunny 83 28.3 60 15.4 45 45 N 10 17 29.80 1009 10 16 N/A
6:15 pm 18:15 Sunny 82 28 58 14.7 44 44 NNW 8 13 29.80 1009 10 16 N/A
6:35 pm 18:35 Sunny 82 28 59 15.1 45 45 N 9 15 29.80 1009 10 16 N/A
6:55 pm 18:55 Sunny 82 28 60 15.7 47 47 NNW 8 13 29.80 1009 10 16 N/A
7:15 pm 19:15 Sunny 81 27.2 61 15.9 50 50 NNW 8 13 29.80 1009 10 16 N/A
7:35 pm 19:35 Sunny 80 26.9 60 15.4 49 49 N 8 13 29.80 1009 10 16 N/A
7:55 pm 19:55 Sunny 80 26.5 59 15 49 49 N 8 13 29.80 1009 10 16 N/A
8:15 pm 20:15 Sunny 79 26 62 16.6 56 56 NNW 5 7 29.85 1011 10 16 N/A
8:35 pm 20:35 Sunny 77 25.1 61 15.9 57 57 NNW 3 6 29.85 1011 10 16 N/A
8:55 pm 20:55 Sunny 75 23.8 59 15.1 58 58 NNW 3 6 29.85 1011 10 16 N/A
9:15 pm 21:15 Clear 74 23.6 59 15 59 59 NNW 3 6 29.85 1011 10 16 N/A
9:35 pm 21:35 Clear 74 23.6 62 16.5 65 65 NNW 3 6 29.88 1012 10 16 N/A
9:55 pm 21:55 Clear 74 23.5 62 16.8 66 66 NNW 5 7 29.88 1012 10 16 N/A
10:15 pm 22:15 Clear 71 21.7 60 15.6 68 68 NNW 3 6 29.88 1012 10 16 N/A
10:35 pm 22:35 Clear 71 21.5 59 15.2 67 67 N 3 6 29.91 1013 10 16 N/A
10:55 pm 22:55 Clear 70 21.1 59 15 68 68 N 3 6 29.91 1013 10 16 N/A
11:15 pm 23:15 Clear 69 20.8 60 15.5 72 72 NNW 3 6 29.91 1013 10 16 N/A
11:35 pm 23:35 Clear 69 20.8 60 15.5 72 72 NNW 6 9 29.91 1013 10 16 N/A
11:55 pm 23:55 Clear 69 20.8 59 14.9 69 69 N 6 9 29.91 1013 10 16 N/A

Powered by AerisWeather